(°C)
(°C)
-0°
-0°
-0°
SSE
SSE
SSE
جنوب
جنوب
جنوب
جنوب
(كم/سا)
9-20
8-19
8-23
8-22
8-21
8-21
7-19
(مم)
0
0
0
0
0
0
0
(%)
0
0
0
0
0
0
0

مستوى ارتفاع الشمس

/ -34.3°
sun-icon
UV 1
08:08
18:20
قمر المساء (190°)
18:42
08:35

متر ل55.03°شمال 82.6°شرق (UNNT)

الوقت الشروط درجة الحرارة/
نقطة الندى
رياح مجال رؤية حالة الطقس غيوم الضغط تغيير خام
VFR 8°C / 1°C 150º 4kt >10km - Clouds and Visibility OK 1010 No Significant change. Runway 16: Clear and dry, 51-100% contamination with <1mm, friction coefficient 0.70. Runway 07: Clear and dry, 51-100% contamination with <1mm, friction coefficient 0.70. UNNT 211500Z 15002MPS CAVOK 08/01 Q1010 R16/090070 R07/090070 NOSIG RMK QFE747/0997
VFR 8°C / 1°C 150º 4kt >10km - Clouds and Visibility OK 1010 No Significant change. Runway 16: Clear and dry, 51-100% contamination with <1mm, friction coefficient 0.70. Runway 07: Clear and dry, 51-100% contamination with <1mm, friction coefficient 0.70. UNNT 211430Z 15002MPS CAVOK 08/01 Q1010 R16/090070 R07/090070 NOSIG RMK QFE747/0997
VFR 7°C / 0°C 150º 6kt >10km - Clouds and Visibility OK 1010 No Significant change. Runway 16: Clear and dry, 51-100% contamination with <1mm, friction coefficient 0.70. Runway 07: Clear and dry, 51-100% contamination with <1mm, friction coefficient 0.70. UNNT 211400Z 15003MPS CAVOK 07/00 Q1010 R16/090070 R07/090070 NOSIG RMK QFE747/0997
VFR 7°C / 0°C 150º 4kt >10km - Clouds and Visibility OK 1010 No Significant change. Runway 16: Clear and dry, 51-100% contamination with <1mm, friction coefficient 0.70. Runway 07: Clear and dry, 51-100% contamination with <1mm, friction coefficient 0.70. UNNT 211330Z 15002MPS CAVOK 07/M00 Q1010 R16/090070 R07/090070 NOSIG RMK QFE747/0997
VFR 8°C / 0°C 150º 4kt >10km - Clouds and Visibility OK 1010 No Significant change. Runway 16: Clear and dry, 51-100% contamination with <1mm, friction coefficient 0.70. Runway 07: Clear and dry, 51-100% contamination with <1mm, friction coefficient 0.70. UNNT 211300Z 15002MPS CAVOK 08/M00 Q1010 R16/090070 R07/090070 NOSIG RMK QFE747/0996
VFR 8°C / 0°C 160º 8kt >10km - Clouds and Visibility OK 1010 No Significant change. Runway 16: Clear and dry, 51-100% contamination with <1mm, friction coefficient 0.70. Runway 07: Clear and dry, 51-100% contamination with <1mm, friction coefficient 0.70. UNNT 211230Z 16004MPS CAVOK 08/00 Q1010 R16/090070 R07/090070 NOSIG RMK QFE747/0997
VFR 9°C / 0°C 160º 8kt >10km - Clouds and Visibility OK 1010 No Significant change. Runway 16: Clear and dry, 51-100% contamination with <1mm, friction coefficient 0.70. Runway 07: Clear and dry, 51-100% contamination with <1mm, friction coefficient 0.70. UNNT 211200Z 16004MPS CAVOK 09/00 Q1010 R16/090070 R07/090070 NOSIG RMK QFE747/0997
VFR 8°C / 0°C 170º 6kt >10km - Clouds and Visibility OK 1010 No Significant change. Runway 16: Clear and dry, 51-100% contamination with <1mm, friction coefficient 0.70. Runway 07: Clear and dry, 51-100% contamination with <1mm, friction coefficient 0.70. UNNT 211130Z 17003MPS CAVOK 08/00 Q1010 R16/090070 R07/090070 NOSIG RMK QFE747/0997
VFR 10°C / 0°C 170º 6kt >10km - Clouds and Visibility OK 1010 No Significant change. Runway 16: Clear and dry, 51-100% contamination with <1mm, friction coefficient 0.70. Runway 07: Clear and dry, 51-100% contamination with <1mm, friction coefficient 0.70. UNNT 211100Z 17003MPS CAVOK 10/00 Q1010 R16/090070 R07/090070 NOSIG RMK QFE747/0997
VFR 13°C / 1°C 170º 8kt >10km - Clouds and Visibility OK 1009 No Significant change. Runway 16: Clear and dry, 51-100% contamination with <1mm, friction coefficient 0.70. Runway 07: Clear and dry, 51-100% contamination with <1mm, friction coefficient 0.70. UNNT 211030Z 17004MPS CAVOK 13/01 Q1009 R16/090070 R07/090070 NOSIG RMK QFE747/0996
VFR 14°C / 1°C 170º 10kt >10km - Clouds and Visibility OK 1010 No Significant change. Runway 16: Clear and dry, 51-100% contamination with <1mm, friction coefficient 0.70. Runway 07: Clear and dry, 51-100% contamination with <1mm, friction coefficient 0.70. UNNT 211000Z 17005MPS CAVOK 14/01 Q1010 R16/090070 R07/090070 NOSIG RMK QFE747/0996
VFR 15°C / 0°C 170º 10kt >10km - Clouds and Visibility OK 1010 No Significant change. Runway 16: Clear and dry, 51-100% contamination with <1mm, friction coefficient 0.70. Runway 07: Clear and dry, 51-100% contamination with <1mm, friction coefficient 0.70. UNNT 210930Z 17005MPS CAVOK 15/00 Q1010 R16/090070 R07/090070 NOSIG RMK QFE747/0997
VFR 14°C / 0°C 170º 12kt >10km - Clouds and Visibility OK 1010 No Significant change. Runway 16: Clear and dry, 51-100% contamination with <1mm, friction coefficient 0.70. Runway 07: Clear and dry, 51-100% contamination with <1mm, friction coefficient 0.70. UNNT 210900Z 17006MPS CAVOK 14/00 Q1010 R16/090070 R07/090070 NOSIG RMK QFE747/0997
VFR 14°C / 0°C 180º 12kt >10km - Clouds and Visibility OK 1010 No Significant change. Runway 16: Clear and dry, 51-100% contamination with <1mm, friction coefficient 0.70. Runway 07: Clear and dry, 51-100% contamination with <1mm, friction coefficient 0.70. UNNT 210830Z 18006MPS CAVOK 14/00 Q1010 R16/090070 R07/090070 NOSIG RMK QFE748/0997
VFR 14°C / 0°C 180º 12kt >10km - Clouds and Visibility OK 1010 No Significant change. Runway 16: Clear and dry, 51-100% contamination with <1mm, friction coefficient 0.70. Runway 07: Clear and dry, 51-100% contamination with <1mm, friction coefficient 0.70. UNNT 210800Z 18006MPS CAVOK 14/00 Q1010 R16/090070 R07/090070 NOSIG RMK QFE748/0997
VFR 13°C / 0°C 180º 12kt >10km - Clouds and Visibility OK 1010 No Significant change. Runway 16: Clear and dry, 51-100% contamination with <1mm, friction coefficient 0.70. Runway 07: Clear and dry, 51-100% contamination with <1mm, friction coefficient 0.70. UNNT 210730Z 18006MPS CAVOK 13/00 Q1010 R16/090070 R07/090070 NOSIG RMK QFE748/0997
VFR 14°C / 0°C 180º 12kt >10km - Clouds and Visibility OK 1010 No Significant change. Runway 16: Clear and dry, 51-100% contamination with <1mm, friction coefficient 0.70. Runway 07: Clear and dry, 51-100% contamination with <1mm, friction coefficient 0.70. UNNT 210700Z 18006MPS CAVOK 14/00 Q1010 R16/090070 R07/090070 NOSIG RMK QFE748/0997
VFR 12°C / 0°C 170º 12kt >10km - Clouds and Visibility OK 1010 No Significant change. Runway 16: Clear and dry, 51-100% contamination with <1mm, friction coefficient 0.70. Runway 07: Clear and dry, 51-100% contamination with <1mm, friction coefficient 0.70. UNNT 210630Z 17006MPS CAVOK 12/M00 Q1010 R16/090070 R07/090070 NOSIG RMK QFE748/0997
VFR 12°C / 0°C 180º 12kt >10km - Clouds and Visibility OK 1011 No Significant change. Runway 16: Clear and dry, 51-100% contamination with <1mm, friction coefficient 0.70. Runway 07: Clear and dry, 51-100% contamination with <1mm, friction coefficient 0.70. UNNT 210600Z 18006MPS CAVOK 12/M00 Q1011 R16/090070 R07/090070 NOSIG RMK QFE748/0998
VFR 11°C / 0°C 180º 12kt >10km - Clouds and Visibility OK 1011 No Significant change. Runway 16: Clear and dry, 51-100% contamination with <1mm, friction coefficient 0.70. Runway 07: Clear and dry, 51-100% contamination with <1mm, friction coefficient 0.70. UNNT 210530Z 18006MPS CAVOK 11/M00 Q1011 R16/090070 R07/090070 NOSIG RMK QFE748/0998
VFR 11°C / 0°C 170º 12kt >10km - Clouds and Visibility OK 1011 No Significant change. Runway 16: Clear and dry, 51-100% contamination with <1mm, friction coefficient 0.70. Runway 07: Clear and dry, 51-100% contamination with <1mm, friction coefficient 0.70. UNNT 210500Z 17006MPS CAVOK 11/M00 Q1011 R16/090070 R07/090070 NOSIG RMK QFE748/0998
VFR 10°C / 0°C 170º 12kt >10km - Clouds and Visibility OK 1011 No Significant change. Runway 16: Clear and dry, 51-100% contamination with <1mm, friction coefficient 0.70. Runway 07: Clear and dry, 51-100% contamination with <1mm, friction coefficient 0.70. UNNT 210430Z 17006MPS CAVOK 10/00 Q1011 R16/090070 R07/090070 NOSIG RMK QFE748/0998
VFR 9°C / 0°C 180º 10kt >10km - Clouds and Visibility OK 1011 No Significant change. Runway 16: Clear and dry, 51-100% contamination with <1mm, friction coefficient 0.70. Runway 07: Clear and dry, 51-100% contamination with <1mm, friction coefficient 0.70. UNNT 210400Z 18005MPS CAVOK 09/00 Q1011 R16/090070 R07/090070 NOSIG RMK QFE748/0998
VFR 8°C / 0°C 160º 8kt >10km - Clouds and Visibility OK 1011 No Significant change. Runway 16: Clear and dry, 51-100% contamination with <1mm, friction coefficient 0.70. Runway 07: Clear and dry, 51-100% contamination with <1mm, friction coefficient 0.70. UNNT 210330Z 16004MPS CAVOK 08/00 Q1011 R16/090070 R07/090070 NOSIG RMK QFE748/0998

VFR

8°C / 1°C

[أكثر]
رياح 150º 4kt
مجال رؤية >10km
حالة الطقس -
غيوم Clouds and Visibility OK
الضغط 1010
تغيير No Significant change. Runway 16: Clear and dry, 51-100% contamination with <1mm, friction coefficient 0.70. Runway 07: Clear and dry, 51-100% contamination with <1mm, friction coefficient 0.70.
خام UNNT 211500Z 15002MPS CAVOK 08/01 Q1010 R16/090070 R07/090070 NOSIG RMK QFE747/0997

VFR

8°C / 1°C

[أكثر]
رياح 150º 4kt
مجال رؤية >10km
حالة الطقس -
غيوم Clouds and Visibility OK
الضغط 1010
تغيير No Significant change. Runway 16: Clear and dry, 51-100% contamination with <1mm, friction coefficient 0.70. Runway 07: Clear and dry, 51-100% contamination with <1mm, friction coefficient 0.70.
خام UNNT 211430Z 15002MPS CAVOK 08/01 Q1010 R16/090070 R07/090070 NOSIG RMK QFE747/0997

VFR

7°C / 0°C

[أكثر]
رياح 150º 6kt
مجال رؤية >10km
حالة الطقس -
غيوم Clouds and Visibility OK
الضغط 1010
تغيير No Significant change. Runway 16: Clear and dry, 51-100% contamination with <1mm, friction coefficient 0.70. Runway 07: Clear and dry, 51-100% contamination with <1mm, friction coefficient 0.70.
خام UNNT 211400Z 15003MPS CAVOK 07/00 Q1010 R16/090070 R07/090070 NOSIG RMK QFE747/0997

VFR

7°C / 0°C

[أكثر]
رياح 150º 4kt
مجال رؤية >10km
حالة الطقس -
غيوم Clouds and Visibility OK
الضغط 1010
تغيير No Significant change. Runway 16: Clear and dry, 51-100% contamination with <1mm, friction coefficient 0.70. Runway 07: Clear and dry, 51-100% contamination with <1mm, friction coefficient 0.70.
خام UNNT 211330Z 15002MPS CAVOK 07/M00 Q1010 R16/090070 R07/090070 NOSIG RMK QFE747/0997

VFR

8°C / 0°C

[أكثر]
رياح 150º 4kt
مجال رؤية >10km
حالة الطقس -
غيوم Clouds and Visibility OK
الضغط 1010
تغيير No Significant change. Runway 16: Clear and dry, 51-100% contamination with <1mm, friction coefficient 0.70. Runway 07: Clear and dry, 51-100% contamination with <1mm, friction coefficient 0.70.
خام UNNT 211300Z 15002MPS CAVOK 08/M00 Q1010 R16/090070 R07/090070 NOSIG RMK QFE747/0996

VFR

8°C / 0°C

[أكثر]
رياح 160º 8kt
مجال رؤية >10km
حالة الطقس -
غيوم Clouds and Visibility OK
الضغط 1010
تغيير No Significant change. Runway 16: Clear and dry, 51-100% contamination with <1mm, friction coefficient 0.70. Runway 07: Clear and dry, 51-100% contamination with <1mm, friction coefficient 0.70.
خام UNNT 211230Z 16004MPS CAVOK 08/00 Q1010 R16/090070 R07/090070 NOSIG RMK QFE747/0997

VFR

9°C / 0°C

[أكثر]
رياح 160º 8kt
مجال رؤية >10km
حالة الطقس -
غيوم Clouds and Visibility OK
الضغط 1010
تغيير No Significant change. Runway 16: Clear and dry, 51-100% contamination with <1mm, friction coefficient 0.70. Runway 07: Clear and dry, 51-100% contamination with <1mm, friction coefficient 0.70.
خام UNNT 211200Z 16004MPS CAVOK 09/00 Q1010 R16/090070 R07/090070 NOSIG RMK QFE747/0997

VFR

8°C / 0°C

[أكثر]
رياح 170º 6kt
مجال رؤية >10km
حالة الطقس -
غيوم Clouds and Visibility OK
الضغط 1010
تغيير No Significant change. Runway 16: Clear and dry, 51-100% contamination with <1mm, friction coefficient 0.70. Runway 07: Clear and dry, 51-100% contamination with <1mm, friction coefficient 0.70.
خام UNNT 211130Z 17003MPS CAVOK 08/00 Q1010 R16/090070 R07/090070 NOSIG RMK QFE747/0997

VFR

10°C / 0°C

[أكثر]
رياح 170º 6kt
مجال رؤية >10km
حالة الطقس -
غيوم Clouds and Visibility OK
الضغط 1010
تغيير No Significant change. Runway 16: Clear and dry, 51-100% contamination with <1mm, friction coefficient 0.70. Runway 07: Clear and dry, 51-100% contamination with <1mm, friction coefficient 0.70.
خام UNNT 211100Z 17003MPS CAVOK 10/00 Q1010 R16/090070 R07/090070 NOSIG RMK QFE747/0997

VFR

13°C / 1°C

[أكثر]
رياح 170º 8kt
مجال رؤية >10km
حالة الطقس -
غيوم Clouds and Visibility OK
الضغط 1009
تغيير No Significant change. Runway 16: Clear and dry, 51-100% contamination with <1mm, friction coefficient 0.70. Runway 07: Clear and dry, 51-100% contamination with <1mm, friction coefficient 0.70.
خام UNNT 211030Z 17004MPS CAVOK 13/01 Q1009 R16/090070 R07/090070 NOSIG RMK QFE747/0996

VFR

14°C / 1°C

[أكثر]
رياح 170º 10kt
مجال رؤية >10km
حالة الطقس -
غيوم Clouds and Visibility OK
الضغط 1010
تغيير No Significant change. Runway 16: Clear and dry, 51-100% contamination with <1mm, friction coefficient 0.70. Runway 07: Clear and dry, 51-100% contamination with <1mm, friction coefficient 0.70.
خام UNNT 211000Z 17005MPS CAVOK 14/01 Q1010 R16/090070 R07/090070 NOSIG RMK QFE747/0996

VFR

15°C / 0°C

[أكثر]
رياح 170º 10kt
مجال رؤية >10km
حالة الطقس -
غيوم Clouds and Visibility OK
الضغط 1010
تغيير No Significant change. Runway 16: Clear and dry, 51-100% contamination with <1mm, friction coefficient 0.70. Runway 07: Clear and dry, 51-100% contamination with <1mm, friction coefficient 0.70.
خام UNNT 210930Z 17005MPS CAVOK 15/00 Q1010 R16/090070 R07/090070 NOSIG RMK QFE747/0997

VFR

14°C / 0°C

[أكثر]
رياح 170º 12kt
مجال رؤية >10km
حالة الطقس -
غيوم Clouds and Visibility OK
الضغط 1010
تغيير No Significant change. Runway 16: Clear and dry, 51-100% contamination with <1mm, friction coefficient 0.70. Runway 07: Clear and dry, 51-100% contamination with <1mm, friction coefficient 0.70.
خام UNNT 210900Z 17006MPS CAVOK 14/00 Q1010 R16/090070 R07/090070 NOSIG RMK QFE747/0997

VFR

14°C / 0°C

[أكثر]
رياح 180º 12kt
مجال رؤية >10km
حالة الطقس -
غيوم Clouds and Visibility OK
الضغط 1010
تغيير No Significant change. Runway 16: Clear and dry, 51-100% contamination with <1mm, friction coefficient 0.70. Runway 07: Clear and dry, 51-100% contamination with <1mm, friction coefficient 0.70.
خام UNNT 210830Z 18006MPS CAVOK 14/00 Q1010 R16/090070 R07/090070 NOSIG RMK QFE748/0997

VFR

14°C / 0°C

[أكثر]
رياح 180º 12kt
مجال رؤية >10km
حالة الطقس -
غيوم Clouds and Visibility OK
الضغط 1010
تغيير No Significant change. Runway 16: Clear and dry, 51-100% contamination with <1mm, friction coefficient 0.70. Runway 07: Clear and dry, 51-100% contamination with <1mm, friction coefficient 0.70.
خام UNNT 210800Z 18006MPS CAVOK 14/00 Q1010 R16/090070 R07/090070 NOSIG RMK QFE748/0997

VFR

13°C / 0°C

[أكثر]
رياح 180º 12kt
مجال رؤية >10km
حالة الطقس -
غيوم Clouds and Visibility OK
الضغط 1010
تغيير No Significant change. Runway 16: Clear and dry, 51-100% contamination with <1mm, friction coefficient 0.70. Runway 07: Clear and dry, 51-100% contamination with <1mm, friction coefficient 0.70.
خام UNNT 210730Z 18006MPS CAVOK 13/00 Q1010 R16/090070 R07/090070 NOSIG RMK QFE748/0997

VFR

14°C / 0°C

[أكثر]
رياح 180º 12kt
مجال رؤية >10km
حالة الطقس -
غيوم Clouds and Visibility OK
الضغط 1010
تغيير No Significant change. Runway 16: Clear and dry, 51-100% contamination with <1mm, friction coefficient 0.70. Runway 07: Clear and dry, 51-100% contamination with <1mm, friction coefficient 0.70.
خام UNNT 210700Z 18006MPS CAVOK 14/00 Q1010 R16/090070 R07/090070 NOSIG RMK QFE748/0997

VFR

12°C / 0°C

[أكثر]
رياح 170º 12kt
مجال رؤية >10km
حالة الطقس -
غيوم Clouds and Visibility OK
الضغط 1010
تغيير No Significant change. Runway 16: Clear and dry, 51-100% contamination with <1mm, friction coefficient 0.70. Runway 07: Clear and dry, 51-100% contamination with <1mm, friction coefficient 0.70.
خام UNNT 210630Z 17006MPS CAVOK 12/M00 Q1010 R16/090070 R07/090070 NOSIG RMK QFE748/0997

VFR

12°C / 0°C

[أكثر]
رياح 180º 12kt
مجال رؤية >10km
حالة الطقس -
غيوم Clouds and Visibility OK
الضغط 1011
تغيير No Significant change. Runway 16: Clear and dry, 51-100% contamination with <1mm, friction coefficient 0.70. Runway 07: Clear and dry, 51-100% contamination with <1mm, friction coefficient 0.70.
خام UNNT 210600Z 18006MPS CAVOK 12/M00 Q1011 R16/090070 R07/090070 NOSIG RMK QFE748/0998

VFR

11°C / 0°C

[أكثر]
رياح 180º 12kt
مجال رؤية >10km
حالة الطقس -
غيوم Clouds and Visibility OK
الضغط 1011
تغيير No Significant change. Runway 16: Clear and dry, 51-100% contamination with <1mm, friction coefficient 0.70. Runway 07: Clear and dry, 51-100% contamination with <1mm, friction coefficient 0.70.
خام UNNT 210530Z 18006MPS CAVOK 11/M00 Q1011 R16/090070 R07/090070 NOSIG RMK QFE748/0998

VFR

11°C / 0°C

[أكثر]
رياح 170º 12kt
مجال رؤية >10km
حالة الطقس -
غيوم Clouds and Visibility OK
الضغط 1011
تغيير No Significant change. Runway 16: Clear and dry, 51-100% contamination with <1mm, friction coefficient 0.70. Runway 07: Clear and dry, 51-100% contamination with <1mm, friction coefficient 0.70.
خام UNNT 210500Z 17006MPS CAVOK 11/M00 Q1011 R16/090070 R07/090070 NOSIG RMK QFE748/0998

VFR

10°C / 0°C

[أكثر]
رياح 170º 12kt
مجال رؤية >10km
حالة الطقس -
غيوم Clouds and Visibility OK
الضغط 1011
تغيير No Significant change. Runway 16: Clear and dry, 51-100% contamination with <1mm, friction coefficient 0.70. Runway 07: Clear and dry, 51-100% contamination with <1mm, friction coefficient 0.70.
خام UNNT 210430Z 17006MPS CAVOK 10/00 Q1011 R16/090070 R07/090070 NOSIG RMK QFE748/0998

VFR

9°C / 0°C

[أكثر]
رياح 180º 10kt
مجال رؤية >10km
حالة الطقس -
غيوم Clouds and Visibility OK
الضغط 1011
تغيير No Significant change. Runway 16: Clear and dry, 51-100% contamination with <1mm, friction coefficient 0.70. Runway 07: Clear and dry, 51-100% contamination with <1mm, friction coefficient 0.70.
خام UNNT 210400Z 18005MPS CAVOK 09/00 Q1011 R16/090070 R07/090070 NOSIG RMK QFE748/0998

VFR

8°C / 0°C

[أكثر]
رياح 160º 8kt
مجال رؤية >10km
حالة الطقس -
غيوم Clouds and Visibility OK
الضغط 1011
تغيير No Significant change. Runway 16: Clear and dry, 51-100% contamination with <1mm, friction coefficient 0.70. Runway 07: Clear and dry, 51-100% contamination with <1mm, friction coefficient 0.70.
خام UNNT 210330Z 16004MPS CAVOK 08/00 Q1011 R16/090070 R07/090070 NOSIG RMK QFE748/0998

انقر ل55.03°شمال 82.6°شرق (UNNT)

From till


From till Wind 160º 6kt. Gust 16kt. Visibility 8000m. Broken Clouds 3900ft.
Becoming from till Wind 210º 16kt. Gust 29kt. Visibility 8000m. Broken Clouds 3900ft.

خام: TAF UNNT 211400Z 2115/2215 16003G08MPS 8000 BKN039CB BECMG 2122/2202 21008G15MPS

صور الأقمار الصناعية الملتقطة و الأمطار حالياً ل55.03°شمال 82.6°شرق

المؤشر يدل على موقع 55.03°شمال 82.6°شرق. [أكثر]

تجمع صورة الأقمار الصناعية في الوقت الفعلي بين الضوء المرئي أثناء النهار والأشعة تحت الحمراء أثناء الليل. لا تبدو الصورة مظلمة ليلاً، لأن الأشعة تحت الحمراء يمكنها الكشف عن الاختلافات في درجة الحرارة. لسوء الحظ ، يصعب التمييز بين السحب المنخفضة والضباب ودرجات حرارة الأرض ، وبالتالي يمكن أن تكون الصور غير مرئية تقريبًا أثناء الليل. يتم تحديث صور الأقمار الصناعية Meteosat الخاصة بأوروبا في الوقت الفعلي كل 5 دقائق، بينما يتم تحديث صور GOES-16 / GOES-17 (أمريكا الشمالية والجنوبية) و Himawari (آسيا) كل 10 دقائق.

حقوق النسخ 2021 EUMETSAT / meteoblue. / حقوق النسخ 2021 meteoblue

رادار وهطول الأمطار التنبؤ الآني ل55.03°شمال 82.6°شرق

رذاذ
ضوء
معتدل
ثقيل
ثقيل جدا
وابل

مؤشر المكان يشير الى 55.03°شمال 82.6°شرق. تظهر في هذه الرسوم المتحركة هطول الامطار بالرادار للساعة الماضية, و توقعات 1h. رذاذ أو تساقط ثلوج خفيف قد يكون غير مرئي للرادار. كثافة هطول الأمطار مرمزة بالألوان وتتراوح من الأزرق الفاتح إلى البرتقالي.